Weather observations for the past three days for
Atlantic City, Atlantic City International Airport
| Date | Time (edt) | Wind (kph) | Vis. (km) | Weather | Sky Cond. | Temperature (ºC) | Relative Humidity | Wind Chill (°C) | Heat Index (°C) | Pressure | Precipitation (cm) | ||||||
|---|---|---|---|---|---|---|---|---|---|---|---|---|---|---|---|---|---|
| Air | Dwpt | 6 hour | altimeter (cm) | sea level (mb) | 1 hr | 3 hr | 6 hr | ||||||||||
| Max. | Min. | ||||||||||||||||
| 04 | 17:54 | W 17 | 16.09 | Partly Cloudy | SCT035 | 28.9 | 22.8 | 70% | 32 | 75.82 | 0.0 | ||||||
| 04 | 16:54 | NW 17 | 16.09 | Partly Cloudy | SCT035 | 29.4 | 21.7 | 63% | 32 | 75.82 | 0.0 | ||||||
| 04 | 15:54 | NW 11 | 16.09 | Partly Cloudy | SCT035 | 30.6 | 22.2 | 61% | 34 | 75.84 | 1012.2 | ||||||
| 04 | 15:20 | NW 19 | 16.09 | Partly Cloudy | SCT035 | 31 | 22 | 59% | 35 | 75.9 | 0.0 | ||||||
| 04 | 14:54 | NW 9 | 16.09 | Partly Cloudy | SCT030 | 30 | 22.8 | 65% | 34 | 75.92 | 1013.3 | ||||||
| 04 | 13:54 | NW 9 | 16.09 | Partly Cloudy | SCT030 | 30 | 22.8 | 65% | 34 | 75.92 | 0.0 | ||||||
| 04 | 03:54 | W 28 G 43 | 16.09 | Light Rain | NULL | 24.4 | 23.3 | 94% | 24 | 75.9 | 1012.9 | ||||||
| 04 | 02:54 | Calm | 16.09 | Fair | CLR | 23.9 | 23.3 | 96% | 23 | 75.9 | 1012.9 | ||||||
| 03 | 20:54 | SW 9 | 16.09 | NULL | NULL | 25.6 | 23.9 | 90% | 27 | 76.07 | 0.0 | ||||||
| 03 | 19:54 | W 11 | 16.09 | Fair | CLR | 27.8 | 25 | 85% | 32 | 75.97 | 1013.9 | ||||||
| 03 | 18:54 | W 11 | 16.09 | Fair | CLR | 28.3 | 25 | 82% | 33 | 75.97 | 0.0 | ||||||
| 03 | 16:54 | W 22 | 16.09 | Partly Cloudy | SCT025 | 30 | 24.4 | 72% | 36 | 76.02 | 0.0 | ||||||
| 03 | 15:54 | W 22 | 16.09 | Partly Cloudy | SCT025 | 30 | 24.4 | 72% | 36 | 76.02 | 0.0 | ||||||
| 03 | 14:54 | W 28 G 35 | 16.09 | Partly Cloudy | SCT025 | 30 | 24.4 | 72% | 36 | 76.05 | 0.0 | ||||||
| 03 | 12:54 | W 26 | 16.09 | Overcast | OVC020 | 28.3 | 24.4 | 79% | 33 | 76.17 | 0.0 | ||||||
| 03 | 11:54 | SW 15 | 16.09 | A Few Clouds | FEW015 | 27.2 | 23.9 | 82% | 30 | 76.17 | 0.0 | ||||||
| 03 | 07:54 | SW 22 | 16.09 | Fair | CLR | 22.2 | 22.2 | 100% | 76.28 | 1018.0 | |||||||
| 02 | 21:54 | E 9 | 16.09 | Overcast | OVC011 | 22.8 | 22.2 | 96% | 76.38 | 1019.4 | |||||||
| 02 | 19:54 | E 9 | 16.09 | Overcast | OVC011 | 22.8 | 22.2 | 96% | 76.35 | 0.0 | |||||||
| 02 | 18:54 | E 11 | 16.09 | Overcast | OVC020 | 22.8 | 22.2 | 96% | 76.4 | 0.0 | |||||||
| 02 | 17:54 | E 13 | 16.09 | Mostly Cloudy | BKN020 | 23.9 | 22.2 | 90% | 23 | 76.38 | 0.0 | ||||||
| 02 | 17:00 | E 13 | 16.09 | Mostly Cloudy | BKN020 | 24 | 22 | 89% | 24 | 76.38 | 0.0 | ||||||
| 02 | 15:54 | E 11 | 16.09 | Partly Cloudy | SCT020 | 22.8 | 22.2 | 96% | 76.4 | 1019.7 | |||||||
| 02 | 14:54 | E 13 | 16.09 | Overcast | OVC016 | 23.9 | 21.7 | 88% | 24 | 76.45 | 1020.4 | ||||||
| 02 | 13:54 | E 11 | 16.09 | Overcast | OVC015 | 25 | 22.2 | 85% | 26 | 76.5 | 1021.1 | ||||||
| 02 | 12:54 | E 13 | 16.09 | Overcast | OVC015 | 26.1 | 22.2 | 79% | 28 | 76.45 | 1020.4 | ||||||
| 02 | 11:54 | SE 19 | 16.09 | Overcast | OVC014 | 25.6 | 22.2 | 82% | 27 | 76.48 | 0.0 | ||||||
| 02 | 10:54 | E 17 | 16.09 | Overcast | OVC008 | 24.4 | 22.8 | 91% | 24 | 76.5 | 0.0 | ||||||
| 02 | 03:54 | NE 9 | 0.80 | Fog | VV001 | 21.7 | 21.7 | 100% | 76.28 | 1018.0 | |||||||
| 02 | 02:54 | N 9 | 3.22 | Fog/Mist | VV004 | 21.7 | 21.7 | 100% | 76.28 | 0.0 | |||||||
| 02 | 01:54 | NE 11 | 16.09 | Fair | CLR | 21.7 | 21.7 | 100% | 76.28 | 1018.0 | |||||||
| 02 | 00:54 | E 7 | 16.09 | Fair | CLR | 21.1 | 21.1 | 100% | 76.3 | 1018.4 | |||||||
| 01 | 19:54 | SW 13 | 16.09 | Partly Cloudy | SCT020 | 28.9 | 23.9 | 74% | 33 | 76.05 | 1015.0 | ||||||
| 01 | 18:54 | SW 15 | 16.09 | Fair | CLR | 31.1 | 23.9 | 66% | 37 | 76.05 | 0.0 | ||||||
| Date | Time (edt) | Wind (kph) | Vis. (km) | Weather | Sky Cond. | Air | Dwpt | Max. | Min. | Relative Humidity | Wind Chill (°C) | Heat Index (°C) | altimeter (cm) | sea level (mb) | 1 hr | 3 hr | 6 hr |
| 6 hour | |||||||||||||||||
| Temperature (ºC) | Pressure | Precipitation (cm) | |||||||||||||||